Time,TemperatureF,DewpointF,PressureIn,WindDirection,WindDirectionDegrees,WindSpeedMPH,WindSpeedGustMPH,Humidity,HourlyPrecipIn,Conditions,Clouds,dailyrainin,SoftwareType,DateUTC
2013-02-15 00:11:00,29.0,25.0,-100.00,SE,125,1.0,4.0,85,-99.99,,,-99.99,,2013-02-15 08:11:00,
2013-02-15 00:21:00,29.0,25.0,-100.00,SE,130,2.0,4.0,86,-99.99,,,-99.99,,2013-02-15 08:21:00,
2013-02-15 00:31:00,29.0,25.0,-100.00,SE,130,2.0,4.0,86,-99.99,,,-99.99,,2013-02-15 08:31:00,
2013-02-15 00:41:00,29.0,25.0,-100.00,SSE,150,4.0,6.0,86,-99.99,,,-99.99,,2013-02-15 08:41:00,
2013-02-15 00:52:00,29.0,25.0,-100.00,East,100,1.0,5.0,86,-99.99,,,-99.99,,2013-02-15 08:52:00,
2013-02-15 01:01:00,29.0,25.0,-100.00,East,100,1.0,5.0,86,-99.99,,,-99.99,,2013-02-15 09:01:00,
2013-02-15 01:12:00,29.0,25.0,-100.00,SE,130,3.0,4.0,86,-99.99,,,-99.99,,2013-02-15 09:12:00,
2013-02-15 01:21:00,28.0,25.0,-100.00,ESE,115,1.0,3.0,86,-99.99,,,-99.99,,2013-02-15 09:21:00,
2013-02-15 01:31:00,28.0,25.0,-100.00,ESE,115,1.0,3.0,86,-99.99,,,-99.99,,2013-02-15 09:31:00,
2013-02-15 01:41:00,28.0,24.0,-100.00,ESE,115,0.0,2.0,86,-99.99,,,-99.99,,2013-02-15 09:41:00,
2013-02-15 01:51:00,28.0,24.0,-100.00,SE,130,2.0,4.0,86,-99.99,,,-99.99,,2013-02-15 09:51:00,
2013-02-15 02:01:00,28.0,24.0,-100.00,SE,130,2.0,4.0,86,-99.99,,,-99.99,,2013-02-15 10:01:00,
2013-02-15 02:11:00,28.0,24.0,-100.00,SE,130,3.0,4.0,86,-99.99,,,-99.99,,2013-02-15 10:11:00,
2013-02-15 02:21:00,28.0,25.0,-100.00,SE,145,4.0,5.0,87,-99.99,,,-99.99,,2013-02-15 10:21:00,
2013-02-15 02:31:00,28.0,25.0,-100.00,SE,145,4.0,5.0,87,-99.99,,,-99.99,,2013-02-15 10:31:00,
2013-02-15 02:41:00,28.0,24.0,-100.00,East,85,0.0,6.0,87,-99.99,,,-99.99,,2013-02-15 10:41:00,
2013-02-15 02:51:00,27.0,24.0,-100.00,SE,145,4.0,6.0,87,-99.99,,,-99.99,,2013-02-15 10:51:00,
2013-02-15 03:01:00,27.0,24.0,-100.00,SE,145,4.0,6.0,87,-99.99,,,-99.99,,2013-02-15 11:01:00,
2013-02-15 03:11:00,27.0,24.0,-100.00,ESE,115,1.0,5.0,87,-99.99,,,-99.99,,2013-02-15 11:11:00,
2013-02-15 03:22:00,27.0,24.0,-100.00,ESE,105,0.0,5.0,87,-99.99,,,-99.99,,2013-02-15 11:22:00,
2013-02-15 03:31:00,27.0,24.0,-100.00,ESE,105,0.0,5.0,87,-99.99,,,-99.99,,2013-02-15 11:31:00,
2013-02-15 03:42:00,27.0,24.0,-100.00,ESE,105,0.0,5.0,87,-99.99,,,-99.99,,2013-02-15 11:42:00,
2013-02-15 03:52:00,27.0,24.0,-100.00,SE,130,2.0,3.0,87,-99.99,,,-99.99,,2013-02-15 11:52:00,
2013-02-15 04:01:00,27.0,24.0,-100.00,SE,130,2.0,3.0,87,-99.99,,,-99.99,,2013-02-15 12:01:00,
2013-02-15 04:11:00,27.0,23.0,-100.00,East,90,1.0,2.0,87,-99.99,,,-99.99,,2013-02-15 12:11:00,
2013-02-15 04:21:00,27.0,23.0,-100.00,SE,145,1.0,3.0,87,-99.99,,,-99.99,,2013-02-15 12:21:00,
2013-02-15 04:31:00,27.0,23.0,-100.00,SE,145,1.0,3.0,87,-99.99,,,-99.99,,2013-02-15 12:31:00,
2013-02-15 04:42:00,26.0,23.0,-100.00,SE,145,0.0,1.0,87,-99.99,,,-99.99,,2013-02-15 12:42:00,
2013-02-15 04:52:00,26.0,22.0,-100.00,SSE,150,1.0,1.0,87,-99.99,,,-99.99,,2013-02-15 12:52:00,
2013-02-15 05:02:00,26.0,22.0,-100.00,SSE,150,1.0,1.0,87,-99.99,,,-99.99,,2013-02-15 13:02:00,
2013-02-15 05:11:00,26.0,22.0,-100.00,SSE,150,1.0,1.0,87,-99.99,,,-99.99,,2013-02-15 13:11:00,
2013-02-15 05:21:00,26.0,23.0,-100.00,ESE,105,1.0,2.0,88,-99.99,,,-99.99,,2013-02-15 13:21:00,
2013-02-15 05:32:00,26.0,23.0,-100.00,ESE,105,1.0,2.0,88,-99.99,,,-99.99,,2013-02-15 13:32:00,
2013-02-15 05:41:00,26.0,23.0,-100.00,East,100,0.0,3.0,88,-99.99,,,-99.99,,2013-02-15 13:41:00,
2013-02-15 05:51:00,26.0,23.0,-100.00,East,90,0.0,3.0,88,-99.99,,,-99.99,,2013-02-15 13:51:00,
2013-02-15 06:01:00,26.0,23.0,-100.00,East,90,0.0,3.0,88,-99.99,,,-99.99,,2013-02-15 14:01:00,
2013-02-15 06:11:00,26.0,23.0,-100.00,East,90,0.0,3.0,88,-99.99,,,-99.99,,2013-02-15 14:11:00,
2013-02-15 06:21:00,26.0,23.0,-100.00,East,90,0.0,3.0,88,-99.99,,,-99.99,,2013-02-15 14:21:00,
2013-02-15 06:42:00,25.0,22.0,-100.00,SE,140,2.0,2.0,88,-99.99,,,-99.99,,2013-02-15 14:42:00,
2013-02-15 06:52:00,25.0,22.0,-100.00,ESE,115,1.0,2.0,88,-99.99,,,-99.99,,2013-02-15 14:52:00,
2013-02-15 07:01:00,25.0,22.0,-100.00,ESE,115,1.0,2.0,88,-99.99,,,-99.99,,2013-02-15 15:01:00,
2013-02-15 07:11:00,25.0,22.0,-100.00,ESE,115,1.0,2.0,88,-99.99,,,-99.99,,2013-02-15 15:11:00,
2013-02-15 07:21:00,24.0,21.0,-100.00,SE,145,2.0,2.0,88,-99.99,,,-99.99,,2013-02-15 15:21:00,
2013-02-15 07:32:00,24.0,21.0,-100.00,SE,145,2.0,2.0,88,-99.99,,,-99.99,,2013-02-15 15:32:00,
2013-02-15 07:41:00,24.0,21.0,-100.00,SE,145,2.0,2.0,88,-99.99,,,-99.99,,2013-02-15 15:41:00,
2013-02-15 07:51:00,24.0,21.0,-100.00,ENE,65,0.0,1.0,88,-99.99,,,-99.99,,2013-02-15 15:51:00,
2013-02-15 08:01:00,24.0,21.0,-100.00,ENE,65,0.0,1.0,88,-99.99,,,-99.99,,2013-02-15 16:01:00,
2013-02-15 08:11:00,24.0,21.0,-100.00,ENE,65,0.0,1.0,88,-99.99,,,-99.99,,2013-02-15 16:11:00,
2013-02-15 08:22:00,24.0,21.0,-100.00,ENE,65,0.0,1.0,88,-99.99,,,-99.99,,2013-02-15 16:22:00,
2013-02-15 09:11:00,31.0,28.0,-100.00,ESE,110,0.0,1.0,86,-99.99,,,-99.99,,2013-02-15 17:11:00,
2013-02-15 09:21:00,35.0,29.0,-100.00,WNW,295,1.0,4.0,79,-99.99,,,-99.99,,2013-02-15 17:21:00,
2013-02-15 09:32:00,37.0,27.0,-100.00,NW,305,3.0,6.0,69,-99.99,,,-99.99,,2013-02-15 17:32:00,
2013-02-15 09:41:00,37.0,27.0,-100.00,NW,305,3.0,6.0,69,-99.99,,,-99.99,,2013-02-15 17:41:00,
2013-02-15 09:52:00,36.0,25.0,-100.00,WNW,300,6.0,8.0,63,-99.99,,,-99.99,,2013-02-15 17:52:00,
2013-02-15 10:01:00,36.0,25.0,-100.00,WNW,300,6.0,8.0,63,-99.99,,,-99.99,,2013-02-15 18:01:00,
2013-02-15 10:11:00,38.0,25.0,-100.00,North,355,1.0,7.0,59,-99.99,,,-99.99,,2013-02-15 18:11:00,
2013-02-15 10:21:00,39.0,25.0,-100.00,North,0,2.0,6.0,57,-99.99,,,-99.99,,2013-02-15 18:21:00,
2013-02-15 10:31:00,39.0,25.0,-100.00,North,0,2.0,6.0,57,-99.99,,,-99.99,,2013-02-15 18:31:00,
2013-02-15 10:41:00,39.0,25.0,-100.00,North,0,2.0,6.0,57,-99.99,,,-99.99,,2013-02-15 18:41:00,
2013-02-15 10:52:00,42.0,26.0,-100.00,NNW,340,1.0,6.0,52,-99.99,,,-99.99,,2013-02-15 18:52:00,
2013-02-15 11:01:00,42.0,26.0,-100.00,NNW,340,1.0,6.0,52,-99.99,,,-99.99,,2013-02-15 19:01:00,
2013-02-15 11:11:00,44.0,25.0,-100.00,WNW,295,6.0,7.0,48,-99.99,,,-99.99,,2013-02-15 19:11:00,
2013-02-15 11:21:00,45.0,25.0,-100.00,WNW,295,7.0,9.0,45,-99.99,,,-99.99,,2013-02-15 19:21:00,
2013-02-15 11:32:00,45.0,25.0,-100.00,WNW,295,7.0,9.0,45,-99.99,,,-99.99,,2013-02-15 19:32:00,
2013-02-15 11:41:00,45.0,25.0,-100.00,WNW,295,7.0,9.0,45,-99.99,,,-99.99,,2013-02-15 19:41:00,
2013-02-15 11:51:00,48.0,25.0,-100.00,WNW,300,3.0,6.0,41,-99.99,,,-99.99,,2013-02-15 19:51:00,
2013-02-15 12:01:00,48.0,25.0,-100.00,WNW,300,3.0,6.0,41,-99.99,,,-99.99,,2013-02-15 20:01:00,
2013-02-15 12:11:00,48.0,25.0,-100.00,NW,305,4.0,6.0,40,-99.99,,,-99.99,,2013-02-15 20:11:00,
2013-02-15 12:21:00,49.0,25.0,-100.00,WNW,295,2.0,9.0,38,-99.99,,,-99.99,,2013-02-15 20:21:00,
2013-02-15 12:32:00,49.0,25.0,-100.00,WNW,295,2.0,9.0,38,-99.99,,,-99.99,,2013-02-15 20:32:00,
2013-02-15 12:42:00,49.0,25.0,-100.00,WNW,300,5.0,7.0,38,-99.99,,,-99.99,,2013-02-15 20:42:00,
2013-02-15 12:52:00,51.0,25.0,-100.00,NW,315,3.0,6.0,37,-99.99,,,-99.99,,2013-02-15 20:52:00,
2013-02-15 13:01:00,51.0,25.0,-100.00,NW,315,3.0,6.0,37,-99.99,,,-99.99,,2013-02-15 21:01:00,
2013-02-15 13:11:00,51.0,25.0,-100.00,WNW,300,3.0,6.0,36,-99.99,,,-99.99,,2013-02-15 21:11:00,
2013-02-15 13:21:00,51.0,25.0,-100.00,WNW,300,3.0,6.0,36,-99.99,,,-99.99,,2013-02-15 21:21:00,
2013-02-15 13:31:00,51.0,25.0,-100.00,WNW,300,3.0,6.0,36,-99.99,,,-99.99,,2013-02-15 21:31:00,
2013-02-15 13:42:00,52.0,25.0,-100.00,NW,305,2.0,4.0,35,-99.99,,,-99.99,,2013-02-15 21:42:00,
2013-02-15 13:52:00,51.0,24.0,-100.00,WNW,285,2.0,4.0,35,-99.99,,,-99.99,,2013-02-15 21:52:00,
2013-02-15 14:02:00,51.0,24.0,-100.00,WNW,285,2.0,4.0,35,-99.99,,,-99.99,,2013-02-15 22:02:00,
2013-02-15 14:11:00,51.0,24.0,-100.00,WNW,300,2.0,4.0,35,-99.99,,,-99.99,,2013-02-15 22:11:00,
2013-02-15 14:21:00,51.0,24.0,-100.00,WNW,300,2.0,4.0,35,-99.99,,,-99.99,,2013-02-15 22:21:00,
2013-02-15 14:31:00,51.0,24.0,-100.00,WNW,300,2.0,4.0,35,-99.99,,,-99.99,,2013-02-15 22:31:00,
2013-02-15 14:52:00,49.0,24.0,-100.00,West,275,0.0,1.0,37,-99.99,,,-99.99,,2013-02-15 22:52:00,
2013-02-15 15:02:00,49.0,24.0,-100.00,West,275,0.0,1.0,37,-99.99,,,-99.99,,2013-02-15 23:02:00,
2013-02-15 15:11:00,48.0,24.0,-100.00,SE,140,0.0,0.0,39,-99.99,,,-99.99,,2013-02-15 23:11:00,
2013-02-15 15:21:00,48.0,24.0,-100.00,SE,140,0.0,0.0,39,-99.99,,,-99.99,,2013-02-15 23:21:00,
2013-02-15 15:31:00,48.0,24.0,-100.00,SE,140,0.0,0.0,39,-99.99,,,-99.99,,2013-02-15 23:31:00,
2013-02-15 15:52:00,44.0,24.0,-100.00,SE,140,0.0,0.0,45,-99.99,,,-99.99,,2013-02-15 23:52:00,
2013-02-15 16:02:00,44.0,24.0,-100.00,SE,140,0.0,0.0,45,-99.99,,,-99.99,,2013-02-16 00:02:00,
2013-02-15 16:11:00,43.0,25.0,-100.00,ESE,110,0.0,0.0,49,-99.99,,,-99.99,,2013-02-16 00:11:00,
2013-02-15 16:21:00,42.0,26.0,-100.00,East,85,0.0,1.0,53,-99.99,,,-99.99,,2013-02-16 00:21:00,
2013-02-15 16:31:00,42.0,26.0,-100.00,East,85,0.0,1.0,53,-99.99,,,-99.99,,2013-02-16 00:31:00,
2013-02-15 16:41:00,41.0,27.0,-100.00,ESE,110,0.0,1.0,57,-99.99,,,-99.99,,2013-02-16 00:41:00,
2013-02-15 16:51:00,40.0,28.0,-100.00,ESE,110,0.0,0.0,62,-99.99,,,-99.99,,2013-02-16 00:51:00,
2013-02-15 17:02:00,40.0,28.0,-100.00,ESE,110,0.0,0.0,62,-99.99,,,-99.99,,2013-02-16 01:02:00,
2013-02-15 17:11:00,39.0,29.0,-100.00,ESE,120,0.0,1.0,65,-99.99,,,-99.99,,2013-02-16 01:11:00,
2013-02-15 17:21:00,39.0,29.0,-100.00,ESE,120,0.0,1.0,65,-99.99,,,-99.99,,2013-02-16 01:21:00,
2013-02-15 18:11:00,36.0,29.0,-100.00,East,90,1.0,3.0,74,-99.99,,,-99.99,,2013-02-16 02:11:00,
2013-02-15 18:21:00,36.0,29.0,-100.00,East,90,1.0,3.0,74,-99.99,,,-99.99,,2013-02-16 02:21:00,
2013-02-15 18:42:00,35.0,28.0,-100.00,SE,140,3.0,5.0,76,-99.99,,,-99.99,,2013-02-16 02:42:00,
2013-02-15 18:52:00,35.0,28.0,-100.00,SE,135,4.0,6.0,77,-99.99,,,-99.99,,2013-02-16 02:52:00,
2013-02-15 19:01:00,35.0,28.0,-100.00,SE,135,4.0,6.0,77,-99.99,,,-99.99,,2013-02-16 03:01:00,
2013-02-15 19:11:00,34.0,28.0,-100.00,ESE,120,1.0,5.0,79,-99.99,,,-99.99,,2013-02-16 03:11:00,
2013-02-15 19:21:00,34.0,28.0,-100.00,SE,125,3.0,5.0,80,-99.99,,,-99.99,,2013-02-16 03:21:00,
2013-02-15 19:31:00,34.0,28.0,-100.00,SE,125,3.0,5.0,80,-99.99,,,-99.99,,2013-02-16 03:31:00,
2013-02-15 19:41:00,33.0,27.0,-100.00,SE,125,3.0,6.0,80,-99.99,,,-99.99,,2013-02-16 03:41:00,
2013-02-15 19:52:00,33.0,27.0,-100.00,SE,125,3.0,6.0,80,-99.99,,,-99.99,,2013-02-16 03:52:00,
2013-02-15 20:01:00,33.0,27.0,-100.00,SE,125,3.0,6.0,80,-99.99,,,-99.99,,2013-02-16 04:01:00,
2013-02-15 20:11:00,32.0,27.0,-100.00,SE,125,2.0,4.0,82,-99.99,,,-99.99,,2013-02-16 04:11:00,
2013-02-15 20:21:00,32.0,27.0,-100.00,ESE,105,1.0,4.0,83,-99.99,,,-99.99,,2013-02-16 04:21:00,
2013-02-15 20:31:00,32.0,27.0,-100.00,ESE,105,1.0,4.0,83,-99.99,,,-99.99,,2013-02-16 04:31:00,
2013-02-15 20:41:00,31.0,27.0,-100.00,ESE,110,1.0,6.0,84,-99.99,,,-99.99,,2013-02-16 04:41:00,
2013-02-15 20:51:00,31.0,27.0,-100.00,East,85,1.0,6.0,84,-99.99,,,-99.99,,2013-02-16 04:51:00,
2013-02-15 21:01:00,31.0,27.0,-100.00,East,85,1.0,6.0,84,-99.99,,,-99.99,,2013-02-16 05:01:00,
2013-02-15 21:11:00,31.0,27.0,-100.00,East,95,1.0,7.0,84,-99.99,,,-99.99,,2013-02-16 05:11:00,
2013-02-15 21:21:00,31.0,27.0,-100.00,East,100,1.0,6.0,85,-99.99,,,-99.99,,2013-02-16 05:21:00,
2013-02-15 21:31:00,31.0,27.0,-100.00,East,100,1.0,6.0,85,-99.99,,,-99.99,,2013-02-16 05:31:00,
2013-02-15 21:42:00,31.0,27.0,-100.00,East,100,1.0,6.0,85,-99.99,,,-99.99,,2013-02-16 05:42:00,
2013-02-15 21:52:00,31.0,27.0,-100.00,East,100,1.0,6.0,85,-99.99,,,-99.99,,2013-02-16 05:52:00,
2013-02-15 22:21:00,30.0,26.0,-100.00,East,85,1.0,4.0,86,-99.99,,,-99.99,,2013-02-16 06:21:00,
2013-02-15 22:32:00,30.0,26.0,-100.00,East,85,1.0,4.0,86,-99.99,,,-99.99,,2013-02-16 06:32:00,
2013-02-15 22:42:00,30.0,26.0,-100.00,East,85,1.0,4.0,86,-99.99,,,-99.99,,2013-02-16 06:42:00,
2013-02-15 22:51:00,29.0,26.0,-100.00,East,90,0.0,2.0,86,-99.99,,,-99.99,,2013-02-16 06:51:00,
2013-02-15 23:02:00,29.0,26.0,-100.00,East,90,0.0,2.0,86,-99.99,,,-99.99,,2013-02-16 07:02:00,
2013-02-15 23:10:00,28.0,25.0,-100.00,SE,130,1.0,2.0,87,-99.99,,,-99.99,,2013-02-16 07:10:00,
2013-02-15 23:11:00,29.0,26.0,-100.00,East,90,0.0,2.0,86,-99.99,,,-99.99,,2013-02-16 07:11:00,
2013-02-15 23:21:00,29.0,25.0,-100.00,East,100,0.0,1.0,87,-99.99,,,-99.99,,2013-02-16 07:21:00,
2013-02-15 23:31:00,29.0,25.0,-100.00,East,100,0.0,1.0,87,-99.99,,,-99.99,,2013-02-16 07:31:00,
2013-02-15 23:42:00,28.0,25.0,-100.00,SE,130,1.0,2.0,87,-99.99,,,-99.99,,2013-02-16 07:42:00,
2013-02-15 23:52:00,28.0,25.0,-100.00,SE,130,1.0,2.0,87,-99.99,,,-99.99,,2013-02-16 07:52:00,